Flag for Germany Weather past 2 weeks in Kamp-Lintfort, North Rhine-Westphalia, Germany

Now
64 °F

Overcast.


Feels Like: 64 °F
Forecast: 52 / 66 °F
Wind: 5 mph from Northwest

Location: Duesseldorf

Current Time: Sep 1, 2015 at 6:10:11 PM

Latest Report: Sep 1, 2015 at 5:00 PM


Visibility: 16 mi

Pressure: 29.96 "Hg

Humidity: 76%

Dew point: 56 °F

Location of Kamp-LintfortLocation

Historic Weather in Kamp-Lintfort — Graph

°F

Kamp-Lintfort temperature yesterday

Maximum temperature yesterday: 89 °F (at 4:00 PM)
Minimum temperature yesterday: 68 °F (at 8:00 AM)
Average temperature yesterday: 76 °F

Past Weeks' High & Low Weather Summary

 TemperatureHumidityPressure
High89 °F (Aug 30, 4:00 PM)98% (Aug 19, 5:00 AM)30.26 "Hg (Aug 19, 5:00 AM)
Low49 °F (Aug 19, 5:00 AM)33% (Aug 23, 2:00 PM)29.53 "Hg (Aug 24, 6:00 PM)
Average67 °F71%29.98 "Hg
* Reported Aug 17 5:00 PM — Sep 1 5:00 PM, Kamp-Lintfort, Weather by CustomWeather, © 2015

Note: Actual official high and low records may vary slightly from our data, if they occured in-between our weather recording intervals... More about our weather records

Advertising

Kamp-Lintfort weather history for previous 24 hours

 ConditionsComfort  
Time TempWeatherWind HumidityBarometerVisibility
5:00 PM
Tue, Sep 1
64 °FOvercast.5 mph76%29.96 "Hg16 mi
4:00 PM63 °FOvercast.5 mph82%29.94 "Hg14 mi
3:00 PM60 °FLight rain. Overcast.6 mph90%29.93 "Hg11 mi
2:00 PM61 °FLight rain. Low clouds.6 mph93%29.90 "Hg7 mi
1:00 PM61 °FLight rain. Low clouds.5 mph94%29.90 "Hg6 mi
12:00 PM60 °FRain. Low clouds.3 mph95%29.87 "Hg6 mi
10:00 AM61 °FLight rain. Low clouds.5 mph95%29.84 "Hg12 mi
9:00 AM62 °FLight rain. Low clouds.5 mph93%29.84 "Hg7 mi
8:00 AM62 °FLight rain. Low clouds.3 mph94%29.85 "Hg3 mi
7:00 AM64 °FOvercast.3 mph84%29.83 "Hg12 mi
4:00 AM65 °FOvercast.3 mph78%29.84 "Hg25 mi
3:00 AM67 °FPassing clouds.6 mph82%29.83 "Hg22 mi
2:00 AM69 °FOvercast.5 mph84%29.83 "Hg22 mi
1:00 AM69 °FOvercast.5 mph84%29.83 "Hg22 mi
10:00 PM
Mon, Aug 31
71 °FOvercast.3 mph81%29.82 "Hg22 mi
9:00 PM72 °FPassing clouds.6 mph75%29.82 "Hg22 mi
8:00 PM76 °FScattered clouds.8 mph62%29.79 "Hg28 mi
7:00 PM84 °FPartly sunny.7 mph47%29.76 "Hg28 mi
6:00 PM87 °FPassing clouds.9 mph35%29.75 "Hg25 mi
Weather by CustomWeather, © 2015

See weather overviewHow to use our weather pages